DW6632 Weather Reports


time (UTC)temp
F
wind
direction
speed
knots
gust
knots
rain 1hr
in
rain 24hr
in
rain mn
in
humidity
%
barometer
mb
20260507123204 65 39 4.3 12.2 0.02 0.02 0.02 77 1011.5
20260507121204 65 350 2.6 8.7 0.02 0.02 0.02 81 1011.6
20260507120704 65 11 2.6 7.0 0.02 0.02 0.02 81 1011.7
20260507120204 65 356 3.5 6.1 0.02 0.02 0.02 79 1011.8
20260507114205 66 10 2.6 5.2 0.00 0.00 0.00 72 1012.0
20260507113704 66 16 2.6 7.0 0.00 0.00 0.00 70 1012.0
20260507113204 66 51 2.6 10.4 0.00 0.00 0.00 70 1012.0
20260507111704 67 2 4.3 8.7 0.00 0.00 0.00 68 1012.4
20260507110704 68 93 1.7 2.6 0.00 0.00 0.00 64 1012.4
20260507110204 67 66 1.7 6.1 0.00 0.00 0.00 66 1012.4
20260507104704 66 324 1.7 7.0 0.00 0.00 0.00 66 1012.5
20260507104204 66 356 1.7 4.3 0.00 0.00 0.00 66 1012.5
20260507103704 66 53 2.6 4.3 0.00 0.00 0.00 66 1012.5
20260507103205 66 36 1.7 7.8 0.00 0.00 0.00 67 1012.5
20260507101704 65 17 1.7 6.1 0.00 0.00 0.00 68 1012.6
20260507101204 65 354 1.7 2.6 0.00 0.00 0.00 69 1012.6
20260507100704 65 320 2.6 8.7 0.00 0.00 0.00 69 1012.7
20260507100204 65 19 1.7 4.3 0.00 0.00 0.00 68 1012.8
20260507094704 66 43 1.7 4.3 0.00 0.00 0.00 69 1012.9
20260507094204 66 97 0.9 2.6 0.00 0.00 0.00 69 1012.9
20260507093704 66 123 0.9 2.6 0.00 0.00 0.00 69 1012.9
20260507093204 65 40 0.9 2.6 0.00 0.00 0.00 70 1012.9
20260507091704 64 32 1.7 4.3 0.00 0.00 0.00 71 1013.0
20260507091205 64 18 1.7 4.3 0.00 0.00 0.00 71 1013.1
20260507090705 64 19 2.6 4.3 0.00 0.00 0.00 70 1013.1
20260507090205 65 64 0.0 4.3 0.00 0.00 0.00 71 1013.1
20260507084704 64 312 1.7 4.3 0.00 0.00 0.00 72 1012.8
20260507084204 64 0 0.9 2.6 0.00 0.00 0.00 72 1012.9
20260507083705 63 27 2.6 6.1 0.00 0.00 0.00 73 1013.0
20260507083204 63 40 0.0 2.6 0.00 0.00 0.00 74 1012.9
20260507081704 62 17 1.7 2.6 0.00 0.00 0.00 74 1012.8
20260507081204 62 333 0.0 2.6 0.00 0.00 0.00 74 1012.8
20260507080704 61 11 1.7 4.3 0.00 0.00 0.00 74 1012.9
20260507080204 61 340 0.9 4.3 0.00 0.00 0.00 73 1013.0
20260507074704 61 238 0.9 1.7 0.00 0.00 0.00 75 1013.0
20260507073704 61 292 0.0 0.0 0.00 0.00 0.00 77 1013.1
20260507073204 60 291 0.0 2.6 0.00 0.00 0.00 78 1013.1
20260507071704 60 304 0.9 2.6 0.00 0.00 0.00 81 1012.9
20260507071204 60 304 0.9 2.6 0.00 0.00 0.00 82 1012.8
20260507070704 59 9 0.0 0.0 0.00 0.00 0.00 83 1012.8
20260507064205 59 29 0.0 0.0 0.00 0.00 0.00 86 1012.7
20260507063204 58 29 0.0 0.0 0.00 0.00 0.00 86 1012.7
20260507061704 58 29 0.0 0.0 0.00 0.00 0.00 86 1012.6
20260507061204 58 29 0.0 0.0 0.00 0.00 0.00 86 1012.5
20260507060204 57 29 0.0 0.0 0.00 0.00 0.00 87 1012.5
20260507054704 57 28 0.0 0.0 0.00 0.00 0.00 86 1012.3
20260507053704 57 28 0.0 0.0 0.00 0.00 0.00 86 1012.1
20260507053204 57 298 0.0 0.0 0.00 0.00 0.00 86 1012.1
20260507051704 57 298 0.0 0.0 0.00 0.00 0.00 86 1011.9
20260507051205 57 298 0.0 0.0 0.00 0.00 0.00 86 1011.9
20260507050704 57 299 0.0 0.0 0.00 0.00 0.00 86 1011.9
20260507050205 57 299 0.0 0.0 0.00 0.00 0.00 86 1012.0
20260507044705 57 266 0.0 0.0 0.00 0.00 0.00 86 1012.1
20260507044204 57 266 0.0 0.0 0.00 0.00 0.00 86 1012.0
20260507043704 57 266 0.0 0.0 0.00 0.00 0.00 86 1012.0
20260507043204 57 266 0.0 0.0 0.00 0.00 0.00 86 1012.0
20260507041704 57 167 0.0 0.0 0.00 0.00 0.00 87 1011.9
20260507041204 57 167 0.0 0.0 0.00 0.00 0.00 87 1011.8
20260507040204 57 167 0.0 2.6 0.00 0.00 0.00 88 1011.6
20260507034704 56 29 0.0 0.0 0.00 0.00 0.00 88 1011.7
20260507034204 56 26 0.0 0.0 0.00 0.00 0.00 88 1011.7
20260507033704 56 23 0.0 0.0 0.00 0.00 0.00 88 1011.7
20260507031704 56 22 0.0 0.0 0.00 0.00 0.00 87 1011.8
20260507030704 56 22 0.0 0.0 0.00 0.00 0.00 86 1011.8
20260507030204 56 22 0.0 0.0 0.00 0.00 0.00 86 1011.9
20260507024705 57 22 0.0 0.0 0.00 0.00 0.00 86 1012.0
20260507023704 57 22 0.0 0.0 0.00 0.00 0.00 85 1011.8
20260507023204 57 22 0.0 0.0 0.00 0.00 0.00 85 1011.9
20260507021704 57 22 0.0 0.0 0.00 0.00 0.00 85 1012.0
20260507021204 57 22 0.0 0.0 0.00 0.00 0.00 85 1012.1
20260507020704 57 22 0.0 0.0 0.00 0.00 0.00 85 1012.1
20260507014704 58 22 0.0 0.0 0.00 0.00 0.00 84 1012.2
20260507014204 58 22 0.0 0.0 0.00 0.00 0.00 84 1012.2
20260507013703 58 22 0.0 0.0 0.00 0.00 0.00 84 1012.1
20260507013204 58 22 0.0 0.0 0.00 0.00 0.00 83 1012.1
20260507011704 58 22 0.0 0.0 0.00 0.00 0.00 83 1012.2
20260507010204 59 290 0.0 2.6 0.00 0.00 0.00 81 1012.2
20260507004703 59 265 1.7 2.6 0.00 0.00 0.00 81 1012.3
20260507003704 59 287 0.9 2.6 0.00 0.00 0.00 81 1012.2
20260507001704 59 285 1.7 2.6 0.00 0.00 0.00 82 1012.5
20260507000703 59 290 0.9 2.6 0.00 0.00 0.00 82 1012.6
20260507000205 59 292 1.7 2.6 0.00 0.00 0.00 82 1012.6
20260506234205 60 253 0.9 2.6 0.00 0.00 0.00 80 1012.4
20260506233706 60 253 0.9 1.7 0.00 0.00 0.00 80 1012.4
20260506231705 60 252 1.7 2.6 0.00 0.00 0.00 79 1012.6
20260506231205 60 247 1.7 4.3 0.00 0.00 0.00 79 1012.6
20260506230706 60 286 1.7 2.6 0.00 0.00 0.00 79 1012.7
20260506230205 60 285 1.7 2.6 0.00 0.00 0.00 79 1012.8
20260506224705 60 301 0.9 2.6 0.00 0.00 0.00 79 1012.8
20260506223705 60 301 0.9 2.6 0.00 0.00 0.00 79 1012.8
20260506223205 61 299 0.0 2.6 0.00 0.00 0.00 79 1012.8
20260506221705 61 302 0.9 2.6 0.00 0.00 0.00 79 1012.8
20260506221205 61 303 1.7 2.6 0.00 0.00 0.00 79 1012.7
20260506220705 61 288 1.7 2.6 0.00 0.00 0.00 79 1012.7
20260506220205 61 253 2.6 5.2 0.00 0.00 0.00 79 1012.7
20260506214705 61 235 1.7 2.6 0.00 0.00 0.00 79 1012.8
20260506214205 61 242 2.6 5.2 0.00 0.00 0.00 79 1012.8
20260506213705 61 264 3.5 6.1 0.00 0.00 0.00 78 1012.8
20260506213205 61 249 2.6 5.2 0.00 0.00 0.00 78 1012.8
20260506211205 61 352 0.0 1.7 0.00 0.00 0.00 78 1012.6
20260506210705 61 355 1.7 2.6 0.00 0.00 0.00 77 1012.5
20260506210205 61 350 0.9 2.6 0.00 0.00 0.00 77 1012.4
20260506204205 61 348 0.0 0.0 0.00 0.00 0.00 77 1012.1
20260506203204 61 348 0.0 2.6 0.00 0.00 0.00 77 1011.9
20260506201705 62 332 0.9 2.6 0.00 0.00 0.00 75 1011.7
20260506201205 62 307 0.9 2.6 0.00 0.00 0.00 75 1011.7
20260506193705 63 5 0.9 2.6 0.00 0.00 0.00 73 1011.1
20260506193205 63 252 0.0 2.6 0.00 0.00 0.00 71 1011.1
20260506191705 63 87 0.9 1.7 0.00 0.00 0.00 71 1010.9
20260506191205 64 86 0.0 0.0 0.00 0.00 0.00 70 1010.9
20260506190705 64 86 0.0 2.6 0.00 0.00 0.00 70 1010.7
20260506184705 65 103 0.0 0.0 0.00 0.00 0.00 68 1010.6
20260506184205 65 103 0.0 0.0 0.00 0.00 0.00 68 1010.6
20260506183705 65 103 0.0 0.0 0.00 0.00 0.00 67 1010.6
20260506183205 65 104 0.0 0.0 0.00 0.00 0.00 67 1010.5
20260506181705 66 115 0.9 2.6 0.00 0.00 0.00 66 1010.5
20260506181205 67 85 1.7 2.6 0.00 0.00 0.00 64 1010.4
20260506180705 67 113 0.9 2.6 0.00 0.00 0.00 64 1010.3
20260506180205 67 131 0.0 2.6 0.00 0.00 0.00 64 1010.3
20260506174705 67 181 2.6 6.1 0.00 0.00 0.00 63 1010.3
20260506174205 67 164 1.7 4.3 0.00 0.00 0.00 63 1010.3
20260506173705 67 165 3.5 5.2 0.00 0.00 0.00 62 1010.3
20260506173205 67 171 3.5 6.1 0.00 0.00 0.00 62 1010.3
20260506171705 68 154 2.6 6.1 0.00 0.00 0.00 61 1010.3
20260506171205 69 168 2.6 7.8 0.00 0.00 0.00 60 1010.3
20260506170705 69 81 0.9 2.6 0.00 0.00 0.00 60 1010.2
20260506170205 69 118 0.0 4.3 0.00 0.00 0.00 60 1010.3
20260506164706 70 126 0.0 2.6 0.00 0.00 0.00 59 1010.2
20260506164205 70 133 0.9 2.6 0.00 0.00 0.00 59 1010.1
20260506163705 70 185 1.7 5.2 0.00 0.00 0.00 58 1010.2
20260506161205 71 73 1.7 5.2 0.00 0.00 0.00 57 1010.1
20260506160705 71 72 1.7 2.6 0.00 0.00 0.00 57 1010.1
20260506160205 71 54 1.7 7.0 0.00 0.00 0.00 58 1010.1
20260506154204 71 87 0.9 2.6 0.00 0.00 0.00 61 1010.1
20260506153705 71 44 1.7 4.3 0.00 0.00 0.00 58 1010.1
20260506151704 70 80 1.7 2.6 0.00 0.00 0.00 56 1010.1
20260506151205 70 124 0.0 6.1 0.00 0.00 0.00 57 1010.0
20260506150705 70 117 1.7 4.3 0.00 0.00 0.00 57 1010.0
20260506150206 70 114 2.6 8.7 0.00 0.00 0.00 58 1010.0
20260506144205 71 81 2.6 7.8 0.00 0.00 0.00 55 1010.2
20260506143705 71 79 2.6 7.0 0.00 0.00 0.00 55 1010.2
20260506143205 71 86 3.5 10.4 0.00 0.00 0.00 56 1010.2
20260506141705 70 93 2.6 7.0 0.00 0.00 0.00 57 1010.4
20260506141205 71 104 3.5 10.4 0.00 0.00 0.00 56 1010.4
20260506140705 72 106 2.6 10.4 0.00 0.00 0.00 55 1010.3
20260506140205 71 81 2.6 10.4 0.00 0.00 0.00 57 1010.2
20260506134705 71 176 2.6 7.0 0.00 0.00 0.00 55 1010.5
20260506134205 71 136 4.3 10.4 0.00 0.00 0.00 55 1010.5
20260506133705 71 91 4.3 7.8 0.00 0.00 0.00 55 1010.5
20260506133205 71 137 3.5 11.3 0.00 0.00 0.00 56 1010.5
20260506131705 71 98 2.6 6.1 0.00 0.00 0.00 54 1010.6
20260506131205 72 106 1.7 6.1 0.00 0.00 0.00 54 1010.5
20260506130704 72 107 3.5 7.8 0.00 0.00 0.00 53 1010.6
20260506130205 72 41 2.6 6.1 0.00 0.00 0.00 55 1010.6
20260506124205 71 117 2.6 6.1 0.00 0.00 0.00 55 1010.8
20260506123705 72 102 2.6 6.1 0.00 0.00 0.00 54 1010.7